Port Isabel, TX

10:57 PM CST on December 07, 2016 (GMT -0600)
Port Isabel-Cameron County

Weather History for KPIL - August, 2014

Change the Weather History Date:

Sunday, August 17, 2014

  Actual Average (KBRO) Record (KBRO)
Temperature  
Mean Temperature 90 °F 86 °F  
Max Temperature 97 °F 95 °F 104 °F (1915)
Min Temperature 82 °F 76 °F 66 °F (1931)
Degree Days  
Heating Degree Days 0 0  
Month to date heating degree days 0  
Since 1 June heating degree days 0  
Since 1 July heating degree days 0  
Cooling Degree Days 24 20  
Month to date cooling degree days 356  
Year to date cooling degree days 2634  
Since 1 June cooling degree days 1541  
Growing Degree Days 40 (Base 50)    
Moisture  
Dew Point 75 °F    
Average Humidity 63    
Maximum Humidity 82    
Minimum Humidity 41    
Precipitation  
Precipitation 0.00 in 0.08 in 0.91 in (1988)
Month to date precipitation 1.07  
Year to date precipitation 13.44  
Sea Level Pressure  
Sea Level Pressure 29.93 in    
Wind  
Wind Speed 16 mph (SSE)    
Max Wind Speed 25 mph    
Max Gust Speed 38 mph    
Visibility 6 miles    
Events      
T = Trace of Precipitation, MM = Missing Value Source: NWS Daily Summary

Daily Weather History Graph

Daily Weather History Graph

Search for Another Location

Airport or City:

Trip Planner

Search our weather history database for the weather conditions in past years. The results will help you decide how hot, cold, wet, or windy it might be!

Date:

Astronomy

Aug. 17, 2014 Rise Set
Actual Time 7:02 AM CDT 8:03 PM CDT
Civil Twilight 6:38 AM CDT 8:27 PM CDT
Nautical Twilight 6:10 AM CDT 8:55 PM CDT
Astronomical Twilight 5:41 AM CDT 9:25 PM CDT
Moon 12:32 AM CDT (8/17) 2:04 PM CDT (8/17)
Length of Visible Light 13h 48m
Length of Day
13h 00m
Waning Gibbous, 48% of the Moon is Illuminated
Aug 17
Waning Gibbous
Aug 25
New
Sep 2
First Quarter
Sep 8
Full
Sep 15
Last Quarter

Hourly Weather History & Observations

Time (CDT) Temp. Heat Index Dew Point Humidity Pressure Visibility Wind Dir Wind Speed Gust Speed Precip Events Conditions
12:53 AM 84.9 °F 95.3 °F 77.0 °F 77% 29.96 in 8.0 mi SSE 15.0 mph 21.9 mph N/A   Clear
2:53 AM 84.0 °F 93.7 °F 77.0 °F 79% 29.94 in 8.0 mi SSE 13.8 mph 21.9 mph N/A   Clear
3:53 AM 84.0 °F 93.7 °F 77.0 °F 79% 29.93 in 7.0 mi SSE 12.7 mph - N/A   Clear
4:53 AM 82.9 °F 91.8 °F 77.0 °F 82% 29.92 in 7.0 mi SSE 12.7 mph - N/A   Clear
5:53 AM 82.9 °F 91.8 °F 77.0 °F 82% 29.94 in 7.0 mi South 9.2 mph - N/A   Clear
6:53 AM 82.0 °F 89.4 °F 75.9 °F 82% 29.94 in 6.0 mi South 9.2 mph - N/A   Haze
7:53 AM 82.9 °F 91.8 °F 77.0 °F 82% 29.95 in 5.0 mi SSE 11.5 mph - N/A   Haze
8:53 AM 86.0 °F 96.0 °F 75.9 °F 72% 29.96 in 6.0 mi South 17.3 mph - N/A   Haze
9:53 AM 90.0 °F 99.0 °F 73.9 °F 59% 29.97 in 6.0 mi South 18.4 mph 27.6 mph N/A   Haze
10:40 AM 93.2 °F 100.5 °F 71.6 °F 49% 29.98 in 4.0 mi South 24.2 mph 31.1 mph N/A   Haze
10:53 AM 93.0 °F 100.1 °F 71.1 °F 49% 29.98 in 4.0 mi South 21.9 mph 34.5 mph N/A   Haze
11:53 AM 95.0 °F 102.5 °F 71.1 °F 46% 29.98 in 3.0 mi South 21.9 mph 36.8 mph N/A   Haze
12:53 PM 97.0 °F 107.0 °F 73.0 °F 46% 29.96 in 4.0 mi SSE 17.3 mph 29.9 mph N/A   Haze
1:53 PM 97.0 °F 103.5 °F 70.0 °F 41% 29.94 in 4.0 mi South 20.7 mph 38.0 mph N/A   Haze
2:53 PM 97.0 °F 105.5 °F 72.0 °F 44% 29.92 in 5.0 mi South 20.7 mph 29.9 mph N/A   Haze
3:43 PM 96.8 °F 105.1 °F 71.6 °F 44% 29.90 in 6.0 mi SSE 24.2 mph 34.5 mph N/A   Haze
3:53 PM 96.1 °F 105.6 °F 73.0 °F 47% 29.90 in 5.0 mi SSE 25.3 mph 33.4 mph N/A   Haze
4:03 PM 96.8 °F 105.1 °F 71.6 °F 44% 29.89 in 6.0 mi SSE 24.2 mph 33.4 mph N/A   Haze
4:53 PM 95.0 °F 104.5 °F 73.0 °F 49% 29.89 in 6.0 mi SSE 21.9 mph 28.8 mph N/A   Haze
5:53 PM 93.0 °F 103.2 °F 73.9 °F 54% 29.89 in 6.0 mi SSE 20.7 mph 28.8 mph N/A   Haze
6:53 PM 90.0 °F 100.2 °F 75.0 °F 61% 29.88 in 6.0 mi SE 20.7 mph 27.6 mph N/A   Haze
7:53 PM 87.1 °F 98.8 °F 77.0 °F 72% 29.90 in 6.0 mi SSE 19.6 mph 28.8 mph N/A   Haze
8:53 PM 86.0 °F 96.9 °F 77.0 °F 74% 29.93 in 7.0 mi SE 15.0 mph - N/A   Clear
9:53 PM 86.0 °F 96.9 °F 77.0 °F 74% 29.94 in 7.0 mi SE 15.0 mph - N/A   Clear
10:53 PM 84.9 °F 96.6 °F 78.1 °F 80% 29.95 in 7.0 mi SE 13.8 mph - N/A   Clear
11:53 PM 84.9 °F 96.6 °F 78.1 °F 80% 29.96 in 7.0 mi SSE 12.7 mph - N/A   Clear